Tracking 19800 objects as of 23-Jul-2019
HD Live streaming from Space Station
objects crossing your sky now

IRIDIUM 82

Track IRIDIUM 82 now!
10-day predictions
IRIDIUM 82 is classified as:


NORAD ID: 25467
Int'l Code: 1998-051A
Perigee: 478.2 km
Apogee: 729.2 km
Inclination: 86.4 °
Period: 96.6 minutes
Semi major axis: 6974 km
RCS: 4.1187 m2 (large)
Launch date: September 8, 1998
Source: United States (US)
Launch site: AIR FORCE WESTERN TEST RANGE (AFWTR)
aabbcc
Your satellite tracking list
Your tracking list is empty




NASA's NSSDC Master Catalog

Two Line Element Set (TLE):
1 25467U 98051A   19203.93123855 +.00000592 +00000-0 +41563-4 0  9997
2 25467 086.3989 030.9334 0179945 179.2175 180.9372 14.90439131100857
Source of the keplerian elements: AFSPC